When you browse on this site, cookies collect data to enhance your experience and personalize the content and advertising you see.
Visit our Privacy Policy to learn more. By continuing to use the site, you agree to this use of cookies and data.
  • In Hungary
  • List of Countries
  • For 7 days
  • Water Temperature
  • Weather Map
  • News
  • Weather Widgets
  • user-avatar
    Login

    Hourly Weather Amenloch

    Today, 9 December, Monday

    Time Temperature Precipitation Wind Pressure Humidity
    00:00 +6°C° 0.1 mm 4 mps 716 mmHg 85%
    01:00 +7°C° 0.1 mm 4 mps 716 mmHg 84%
    02:00 +6°C° 0.5 mm 5 mps 715 mmHg 83%
    03:00 +5°C° 0.5 mm 5 mps 715 mmHg 82%
    04:00 +4°C° 0.5 mm 6 mps 715 mmHg 80%
    05:00 +3°C° 0.6 mm 6 mps 715 mmHg 83%
    06:00 +3°C° 0.6 mm 5 mps 715 mmHg 86%
    07:00 +3°C° 0.6 mm 5 mps 715 mmHg 90%
    08:00 +3°C° 0.1 mm 5 mps 714 mmHg 87%
    09:00 +3°C° 0.1 mm 6 mps 714 mmHg 84%
    10:00 +4°C° 0.1 mm 6 mps 714 mmHg 82%
    11:00 +4°C° 0.3 mm 6 mps 713 mmHg 83%
    12:00 +4°C° 0.3 mm 7 mps 713 mmHg 84%
    13:00 +3°C° 0.3 mm 7 mps 712 mmHg 85%
    14:00 +3°C° 0.8 mm 7 mps 712 mmHg 88%
    15:00 +3°C° 0.8 mm 6 mps 713 mmHg 90%
    16:00 +2°C° 0.8 mm 6 mps 713 mmHg 93%
    17:00 +2°C° 1 mm 6 mps 714 mmHg 93%
    18:00 +2°C° 1 mm 5 mps 715 mmHg 93%
    19:00 +3°C° 1 mm 4 mps 716 mmHg 94%
    20:00 +3°C° 0.7 mm 4 mps 717 mmHg 94%
    21:00 +2°C° 0.7 mm 3 mps 718 mmHg 95%
    22:00 +2°C° 0.7 mm 3 mps 719 mmHg 96%
    23:00 +2°C° 0.5 mm 3 mps 720 mmHg 95%

    Tomorrow, 10 December, Tuesday

    Time Temperature Precipitation Wind Pressure Humidity
    00:00 +2°C° 0.5 mm 3 mps 721 mmHg 93%
    01:00 +3°C° 0.5 mm 2 mps 722 mmHg 92%
    02:00 +2°C° 0.2 mm 2 mps 723 mmHg 93%
    03:00 +2°C° 0.2 mm 2 mps 724 mmHg 93%
    04:00 +1°C° 0.2 mm 2 mps 725 mmHg 93%
    05:00 +2°C° 0.1 mm 1 mps 725 mmHg 93%
    06:00 +1°C° 0.1 mm 1 mps 726 mmHg 93%
    07:00 +1°C° 0.1 mm 1 mps 727 mmHg 93%
    08:00 +1°C° 0 mm 1 mps 728 mmHg 91%
    09:00 +2°C° 0 mm 1 mps 728 mmHg 89%
    10:00 +1°C° 0 mm 0 mps 729 mmHg 87%
    11:00 +2°C° 0 mm 0 mps 728 mmHg 82%
    12:00 +3°C° 0 mm 0 mps 728 mmHg 78%
    13:00 +5°C° 0 mm 1 mps 728 mmHg 73%
    14:00 +3°C° 0 mm 0 mps 727 mmHg 76%
    15:00 +2°C° 0 mm 0 mps 727 mmHg 79%
    16:00 +1°C° 0 mm 0 mps 726 mmHg 82%
    17:00 0°C° 0 mm 0 mps 726 mmHg 84%
    18:00 +1°C° 0 mm 1 mps 726 mmHg 87%
    19:00 0°C° 0 mm 1 mps 726 mmHg 89%
    20:00 -1°C° 0 mm 1 mps 725 mmHg 88%
    21:00 -2°C° 0 mm 0 mps 725 mmHg 87%
    22:00 -2°C° 0 mm 0 mps 724 mmHg 86%
    23:00 -2°C° 0 mm 0 mps 723 mmHg 85%

    Day after tomorrow, 11 December, Wednesday

    Time Temperature Precipitation Wind Pressure Humidity
    00:00 -2°C° 0 mm 0 mps 723 mmHg 84%
    01:00 -2°C° 0 mm 0 mps 722 mmHg 83%
    02:00 -2°C° 0 mm 0 mps 721 mmHg 81%
    03:00 -2°C° 0 mm 0 mps 721 mmHg 79%
    04:00 -2°C° 0 mm 0 mps 720 mmHg 78%
    05:00 -2°C° 0 mm 0 mps 719 mmHg 76%
    06:00 -2°C° 0 mm 0 mps 719 mmHg 74%
    07:00 -2°C° 0 mm 0 mps 718 mmHg 72%
    08:00 -1°C° 0 mm 0 mps 718 mmHg 69%
    09:00 0°C° 0 mm 0 mps 717 mmHg 66%
    10:00 +1°C° 0 mm 0 mps 717 mmHg 62%
    11:00 +2°C° 0 mm 0 mps 716 mmHg 61%
    12:00 +2°C° 0 mm 0 mps 715 mmHg 59%
    13:00 +3°C° 0 mm 0 mps 715 mmHg 58%
    14:00 +4°C° 0 mm 1 mps 714 mmHg 62%
    15:00 +4°C° 0 mm 1 mps 714 mmHg 66%
    16:00 +2°C° 0 mm 2 mps 714 mmHg 70%
    17:00 +3°C° 0.5 mm 2 mps 714 mmHg 78%
    18:00 +2°C° 0.5 mm 3 mps 715 mmHg 86%
    19:00 +3°C° 0.5 mm 4 mps 716 mmHg 94%
    20:00 +1°C° 0.2 mm 4 mps 716 mmHg 93%
    21:00 +2°C° 0.2 mm 3 mps 716 mmHg 91%
    22:00 +2°C° 0.2 mm 3 mps 715 mmHg 90%
    23:00 +2°C° 0.1 mm 2 mps 715 mmHg 91%

    12 December, Thursday

    Time Temperature Precipitation Wind Pressure Humidity
    00:00 +1°C° 0.1 mm 2 mps 715 mmHg 91%
    01:00 +1°C° 0.1 mm 2 mps 714 mmHg 92%
    02:00 0°C° 0.9 mm 3 mps 714 mmHg 91%
    03:00 0°C° 0.9 mm 3 mps 714 mmHg 90%
    04:00 -1°C° 0.9 mm 4 mps 714 mmHg 89%
    05:00 -1°C° 0.1 mm 4 mps 715 mmHg 88%
    06:00 -1°C° 0.1 mm 5 mps 716 mmHg 88%
    07:00 -1°C° 0.1 mm 5 mps 716 mmHg 88%
    08:00 -1°C° 0.1 mm 5 mps 717 mmHg 88%
    09:00 -1°C° 0.1 mm 4 mps 717 mmHg 87%
    10:00 -1°C° 0.1 mm 4 mps 717 mmHg 87%
    11:00 0°C° 0.1 mm 4 mps 717 mmHg 85%
    12:00 0°C° 0.1 mm 4 mps 717 mmHg 82%
    13:00 +1°C° 0.1 mm 4 mps 717 mmHg 79%
    14:00 0°C° 0.1 mm 4 mps 716 mmHg 81%
    15:00 +1°C° 0.1 mm 3 mps 716 mmHg 82%
    16:00 +1°C° 0.1 mm 2 mps 715 mmHg 84%
    17:00 +1°C° 0 mm 2 mps 714 mmHg 85%
    18:00 -1°C° 0 mm 2 mps 714 mmHg 86%
    19:00 -2°C° 0 mm 2 mps 713 mmHg 87%
    20:00 -2°C° 0.1 mm 2 mps 711 mmHg 86%
    21:00 +1°C° 0.1 mm 1 mps 710 mmHg 85%
    22:00 +1°C° 0.1 mm 1 mps 709 mmHg 84%
    23:00 +1°C° 0.7 mm 1 mps 707 mmHg 87%

    13 December, Friday

    Time Temperature Precipitation Wind Pressure Humidity
    00:00 -1°C° 0.7 mm 2 mps 705 mmHg 90%
    01:00 -1°C° 0.7 mm 2 mps 704 mmHg 93%
    02:00 -1°C° 2.7 mm 3 mps 704 mmHg 94%
    03:00 0°C° 2.7 mm 3 mps 703 mmHg 94%
    04:00 -1°C° 2.7 mm 4 mps 703 mmHg 95%
    05:00 -1°C° 3.6 mm 4 mps 702 mmHg 95%
    06:00 -1°C° 3.6 mm 4 mps 702 mmHg 96%
    07:00 0°C° 3.6 mm 3 mps 701 mmHg 96%
    08:00 -1°C° 3.2 mm 4 mps 702 mmHg 96%
    09:00 0°C° 3.2 mm 4 mps 702 mmHg 97%
    10:00 0°C° 3.2 mm 4 mps 702 mmHg 97%
    11:00 0°C° 1.8 mm 5 mps 703 mmHg 96%
    12:00 0°C° 1.8 mm 5 mps 703 mmHg 95%
    13:00 0°C° 1.8 mm 5 mps 703 mmHg 95%
    14:00 0°C° 0.2 mm 5 mps 704 mmHg 94%
    15:00 0°C° 0.2 mm 5 mps 705 mmHg 93%
    16:00 -1°C° 0.2 mm 5 mps 705 mmHg 92%
    17:00 -1°C° 0.1 mm 5 mps 706 mmHg 92%
    18:00 -2°C° 0.1 mm 6 mps 707 mmHg 91%
    19:00 -2°C° 0.1 mm 6 mps 708 mmHg 91%
    20:00 -2°C° 0.1 mm 6 mps 709 mmHg 91%
    21:00 -1°C° 0.1 mm 5 mps 709 mmHg 92%
    22:00 -1°C° 0.1 mm 5 mps 709 mmHg 92%
    23:00 -1°C° 0.2 mm 5 mps 709 mmHg 92%

    14 December, Saturday

    Time Temperature Precipitation Wind Pressure Humidity
    00:00 -1°C° 0.2 mm 4 mps 709 mmHg 93%
    01:00 -1°C° 0.2 mm 4 mps 708 mmHg 93%
    02:00 0°C° 1 mm 3 mps 708 mmHg 95%
    03:00 0°C° 1 mm 3 mps 708 mmHg 97%
    04:00 0°C° 1 mm 3 mps 708 mmHg 99%
    05:00 +2°C° 1.7 mm 3 mps 708 mmHg 98%
    06:00 +3°C° 1.7 mm 4 mps 708 mmHg 98%
    07:00 +3°C° 1.7 mm 5 mps 708 mmHg 97%
    08:00 +3°C° 0.5 mm 5 mps 710 mmHg 97%
    09:00 +3°C° 0.5 mm 5 mps 711 mmHg 97%
    10:00 +3°C° 0.5 mm 5 mps 712 mmHg 97%
    11:00 +4°C° 0.6 mm 4 mps 712 mmHg 97%
    12:00 +4°C° 0.6 mm 4 mps 713 mmHg 97%
    13:00 +4°C° 0.6 mm 3 mps 713 mmHg 96%
    14:00 +4°C° 0.3 mm 3 mps 714 mmHg 97%
    15:00 +4°C° 0.3 mm 3 mps 714 mmHg 97%
    16:00 +4°C° 0.3 mm 3 mps 715 mmHg 98%
    17:00 +4°C° 1.3 mm 3 mps 715 mmHg 98%
    18:00 +5°C° 1.3 mm 2 mps 715 mmHg 98%
    19:00 +5°C° 1.3 mm 2 mps 715 mmHg 98%
    20:00 +5°C° 1.2 mm 3 mps 716 mmHg 98%
    21:00 +5°C° 1.2 mm 3 mps 716 mmHg 98%
    22:00 +6°C° 1.2 mm 4 mps 716 mmHg 97%
    23:00 +6°C° 0.4 mm 4 mps 717 mmHg 96%
    Show more